TimeMDT,TemperatureF,Dew PointF,Humidity,Sea Level PressureIn,VisibilityMPH,Wind Direction,Wind SpeedMPH,Gust SpeedMPH,PrecipitationIn,Events,Conditions,WindDirDegrees,DateUTC
12:53 AM,48.0,23.0,37,29.97,10.0,SSW,9.2,-,N/A,,Clear,200,2013-04-28 06:53:00
1:53 AM,48.9,21.9,35,29.94,10.0,SSW,9.2,-,N/A,,Clear,210,2013-04-28 07:53:00
2:53 AM,48.0,21.0,34,29.92,10.0,SW,9.2,-,N/A,,Partly Cloudy,220,2013-04-28 08:53:00
3:53 AM,48.0,21.0,34,29.91,10.0,SW,9.2,-,N/A,,Partly Cloudy,220,2013-04-28 09:53:00
4:53 AM,51.1,18.0,27,29.90,10.0,SW,12.7,-,N/A,,Partly Cloudy,230,2013-04-28 10:53:00
5:53 AM,50.0,18.0,28,29.91,10.0,SW,11.5,-,N/A,,Scattered Clouds,230,2013-04-28 11:53:00
6:53 AM,50.0,21.9,33,29.92,10.0,SW,10.4,-,N/A,,Scattered Clouds,230,2013-04-28 12:53:00
7:53 AM,57.9,21.9,25,29.91,10.0,WSW,9.2,-,N/A,,Scattered Clouds,240,2013-04-28 13:53:00
8:53 AM,63.0,21.0,20,29.88,10.0,WSW,8.1,-,N/A,,Clear,240,2013-04-28 14:53:00
9:53 AM,66.9,21.0,17,29.87,10.0,Variable,4.6,-,N/A,,Partly Cloudy,0,2013-04-28 15:53:00
10:53 AM,68.0,18.0,15,29.87,10.0,NNW,4.6,-,N/A,,Partly Cloudy,340,2013-04-28 16:53:00
11:53 AM,71.1,19.0,14,29.87,10.0,Variable,6.9,-,N/A,,Partly Cloudy,0,2013-04-28 17:53:00
12:53 PM,72.0,17.1,12,29.83,10.0,Calm,Calm,-,N/A,,Scattered Clouds,0,2013-04-28 18:53:00
1:53 PM,73.0,19.0,13,29.81,10.0,Calm,Calm,-,N/A,,Scattered Clouds,0,2013-04-28 19:53:00
2:53 PM,75.0,21.9,14,29.78,10.0,NNE,5.8,-,N/A,,Scattered Clouds,30,2013-04-28 20:53:00
3:53 PM,72.0,21.9,15,29.77,10.0,North,13.8,17.3,N/A,,Scattered Clouds,350,2013-04-28 21:53:00
4:53 PM,73.9,19.9,13,29.75,10.0,NNW,11.5,19.6,N/A,,Scattered Clouds,340,2013-04-28 22:53:00
5:53 PM,73.9,21.9,14,29.75,10.0,Calm,Calm,-,N/A,,Scattered Clouds,0,2013-04-28 23:53:00
6:53 PM,71.1,21.0,15,29.75,10.0,NE,4.6,-,N/A,,Scattered Clouds,40,2013-04-29 00:53:00
7:53 PM,66.9,25.0,21,29.74,10.0,SE,5.8,-,N/A,,Mostly Cloudy,130,2013-04-29 01:53:00
8:53 PM,62.1,28.0,28,29.76,10.0,South,4.6,-,N/A,,Mostly Cloudy,180,2013-04-29 02:53:00
9:53 PM,63.0,28.9,28,29.78,10.0,NE,18.4,25.3,N/A,,Mostly Cloudy,40,2013-04-29 03:53:00
10:53 PM,64.0,28.0,26,29.77,10.0,Variable,4.6,-,N/A,,Mostly Cloudy,0,2013-04-29 04:53:00
11:53 PM,60.1,30.0,32,29.76,10.0,East,6.9,-,N/A,,Mostly Cloudy,100,2013-04-29 05:53:00